Location: C�an Torras
(41.5052°N, 1.9280°E)
Time: 02:06:25
(UTC+00:00)

ARGOS - Pass Details

Date: 20 January 2021
Orbit: 820 x 834 km, 98.4° (Epoch: 08 March)

Event Time Altitude Azimuth Distance (km) Brightness Sun altitude
Rises 19:08:45 0° 172° (S) 3,337 6.3 -25.1°
Reaches altitude 10° 19:11:05 10° 174° (S) 2,409 5.5 -25.5°
Maximum altitude 19:16:24 70° 258° (WSW) 876 3.3 -26.5°
Drops below altitude 10° 19:21:47 10° 342° (NNW) 2,432 5.7 -27.5°
Sets 19:24:10 0° 345° (NNW) 3,371 6.5 -28.0°
